When you browse on this site, cookies collect data to enhance your experience and personalize the content and advertising you see.
Visit our Privacy Policy to learn more. By continuing to use the site, you agree to this use of cookies and data.
  • In United Kingdom
  • List of Countries
  • For 7 days
  • Water Temperature
  • Weather Map
  • Weather Widgets
  • user-avatar
    Login

    Hourly Weather Batonyterenye

    Today, 23 September, Monday

    Time Temperature Precipitation Wind Pressure Humidity
    00:00 +12°C° 0 mm 1 mps 729 mmHg 50%
    01:00 +12°C° 0 mm 1 mps 729 mmHg 52%
    02:00 +12°C° 0 mm 1 mps 729 mmHg 51%
    03:00 +12°C° 0 mm 1 mps 728 mmHg 51%
    04:00 +12°C° 0 mm 1 mps 728 mmHg 50%
    05:00 +12°C° 0.1 mm 1 mps 728 mmHg 53%
    06:00 +12°C° 0.1 mm 1 mps 728 mmHg 55%
    07:00 +12°C° 0.1 mm 1 mps 728 mmHg 57%
    08:00 +12°C° 0.4 mm 2 mps 728 mmHg 64%
    09:00 +12°C° 0.4 mm 2 mps 728 mmHg 71%
    10:00 +10°C° 0.4 mm 2 mps 729 mmHg 78%
    11:00 +10°C° 0.9 mm 2 mps 729 mmHg 82%
    12:00 +10°C° 0.9 mm 2 mps 729 mmHg 85%
    13:00 +10°C° 0.9 mm 2 mps 728 mmHg 88%
    14:00 +12°C° 0.1 mm 1 mps 728 mmHg 88%
    15:00 +12°C° 0.1 mm 1 mps 728 mmHg 87%
    16:00 +12°C° 0.1 mm 1 mps 728 mmHg 87%
    17:00 +12°C° 0 mm 1 mps 728 mmHg 87%
    18:00 +12°C° 0 mm 1 mps 728 mmHg 87%
    19:00 +12°C° 0 mm 1 mps 728 mmHg 88%
    20:00 +12°C° 0 mm 1 mps 728 mmHg 87%
    21:00 +12°C° 0 mm 1 mps 728 mmHg 86%
    22:00 +12°C° 0 mm 1 mps 728 mmHg 85%
    23:00 +12°C° 0 mm 1 mps 728 mmHg 84%

    Tomorrow, 24 September, Tuesday

    Time Temperature Precipitation Wind Pressure Humidity
    00:00 +12°C° 0 mm 1 mps 728 mmHg 84%
    01:00 +12°C° 0 mm 1 mps 728 mmHg 83%
    02:00 +12°C° 0 mm 1 mps 728 mmHg 85%
    03:00 +11°C° 0 mm 1 mps 728 mmHg 87%
    04:00 +11°C° 0 mm 1 mps 727 mmHg 89%
    05:00 +12°C° 0 mm 1 mps 728 mmHg 87%
    06:00 +12°C° 0 mm 1 mps 728 mmHg 84%
    07:00 +13°C° 0 mm 1 mps 728 mmHg 82%
    08:00 +15°C° 0 mm 1 mps 728 mmHg 72%
    09:00 +18°C° 0 mm 1 mps 728 mmHg 62%
    10:00 +20°C° 0 mm 1 mps 728 mmHg 52%
    11:00 +21°C° 0 mm 1 mps 728 mmHg 48%
    12:00 +22°C° 0 mm 1 mps 728 mmHg 44%
    13:00 +23°C° 0 mm 1 mps 728 mmHg 40%
    14:00 +22°C° 0 mm 1 mps 727 mmHg 43%
    15:00 +22°C° 0 mm 1 mps 727 mmHg 46%
    16:00 +21°C° 0 mm 1 mps 727 mmHg 49%
    17:00 +20°C° 0 mm 1 mps 727 mmHg 53%
    18:00 +18°C° 0 mm 1 mps 727 mmHg 56%
    19:00 +15°C° 0 mm 0 mps 727 mmHg 60%
    20:00 +15°C° 0 mm 0 mps 727 mmHg 60%
    21:00 +15°C° 0 mm 0 mps 727 mmHg 60%
    22:00 +15°C° 0 mm 0 mps 727 mmHg 60%
    23:00 +14°C° 0 mm 0 mps 727 mmHg 62%

    Day after tomorrow, 25 September, Wednesday

    Time Temperature Precipitation Wind Pressure Humidity
    00:00 +15°C° 0 mm 1 mps 727 mmHg 63%
    01:00 +15°C° 0 mm 1 mps 727 mmHg 64%
    02:00 +15°C° 0 mm 1 mps 727 mmHg 67%
    03:00 +14°C° 0 mm 1 mps 727 mmHg 70%
    04:00 +14°C° 0 mm 1 mps 726 mmHg 72%
    05:00 +14°C° 0 mm 1 mps 726 mmHg 75%
    06:00 +14°C° 0 mm 1 mps 727 mmHg 78%
    07:00 +14°C° 0 mm 1 mps 727 mmHg 81%
    08:00 +15°C° 0 mm 1 mps 727 mmHg 77%
    09:00 +16°C° 0 mm 1 mps 727 mmHg 74%
    10:00 +18°C° 0 mm 1 mps 727 mmHg 70%
    11:00 +18°C° 0 mm 1 mps 727 mmHg 67%
    12:00 +19°C° 0 mm 1 mps 727 mmHg 64%
    13:00 +20°C° 0 mm 1 mps 727 mmHg 61%
    14:00 +20°C° 0 mm 1 mps 727 mmHg 63%
    15:00 +19°C° 0 mm 1 mps 726 mmHg 65%
    16:00 +19°C° 0 mm 1 mps 726 mmHg 67%
    17:00 +18°C° 0.1 mm 1 mps 726 mmHg 72%
    18:00 +16°C° 0.1 mm 1 mps 727 mmHg 77%
    19:00 +15°C° 0.1 mm 1 mps 727 mmHg 82%
    20:00 +15°C° 0.1 mm 1 mps 727 mmHg 84%
    21:00 +15°C° 0.1 mm 1 mps 727 mmHg 86%
    22:00 +14°C° 0.1 mm 1 mps 727 mmHg 88%
    23:00 +14°C° 0 mm 1 mps 727 mmHg 88%

    26 September, Thursday

    Time Temperature Precipitation Wind Pressure Humidity
    00:00 +14°C° 0 mm 1 mps 727 mmHg 88%
    01:00 +14°C° 0 mm 1 mps 727 mmHg 88%
    02:00 +14°C° 0 mm 1 mps 727 mmHg 88%
    03:00 +14°C° 0 mm 1 mps 728 mmHg 87%
    04:00 +14°C° 0 mm 1 mps 728 mmHg 87%
    05:00 +14°C° 0 mm 2 mps 728 mmHg 86%
    06:00 +14°C° 0 mm 2 mps 728 mmHg 85%
    07:00 +14°C° 0 mm 2 mps 728 mmHg 84%
    08:00 +14°C° 0.3 mm 2 mps 728 mmHg 82%
    09:00 +14°C° 0.3 mm 2 mps 729 mmHg 81%
    10:00 +14°C° 0.3 mm 2 mps 729 mmHg 79%
    11:00 +16°C° 0.1 mm 2 mps 729 mmHg 71%
    12:00 +18°C° 0.1 mm 2 mps 729 mmHg 63%
    13:00 +19°C° 0.1 mm 2 mps 729 mmHg 54%
    14:00 +19°C° 0 mm 3 mps 729 mmHg 53%
    15:00 +19°C° 0 mm 3 mps 729 mmHg 52%
    16:00 +19°C° 0 mm 3 mps 729 mmHg 51%
    17:00 +17°C° 0 mm 2 mps 729 mmHg 59%
    18:00 +16°C° 0 mm 2 mps 730 mmHg 66%
    19:00 +14°C° 0 mm 2 mps 730 mmHg 74%
    20:00 +13°C° 0 mm 2 mps 730 mmHg 78%
    21:00 +12°C° 0 mm 1 mps 730 mmHg 82%
    22:00 +12°C° 0 mm 1 mps 731 mmHg 86%
    23:00 +11°C° 0 mm 1 mps 731 mmHg 87%

    27 September, Friday

    Time Temperature Precipitation Wind Pressure Humidity
    00:00 +11°C° 0 mm 1 mps 731 mmHg 89%
    01:00 +11°C° 0 mm 1 mps 731 mmHg 90%
    02:00 +11°C° 0 mm 1 mps 731 mmHg 90%
    03:00 +10°C° 0 mm 1 mps 731 mmHg 90%
    04:00 +9°C° 0 mm 0 mps 731 mmHg 90%
    05:00 +10°C° 0 mm 0 mps 731 mmHg 87%
    06:00 +11°C° 0 mm 0 mps 731 mmHg 84%
    07:00 +11°C° 0 mm 0 mps 731 mmHg 81%
    08:00 +13°C° 0 mm 0 mps 732 mmHg 73%
    09:00 +16°C° 0 mm 1 mps 732 mmHg 64%
    10:00 +20°C° 0 mm 1 mps 732 mmHg 56%
    11:00 +20°C° 0 mm 1 mps 732 mmHg 53%
    12:00 +21°C° 0 mm 1 mps 732 mmHg 50%
    13:00 +21°C° 0 mm 2 mps 732 mmHg 47%
    14:00 +22°C° 0 mm 1 mps 731 mmHg 49%
    15:00 +21°C° 0 mm 1 mps 731 mmHg 52%
    16:00 +21°C° 0 mm 1 mps 731 mmHg 54%
    17:00 +20°C° 0 mm 1 mps 731 mmHg 58%
    18:00 +18°C° 0 mm 1 mps 731 mmHg 62%
    19:00 +16°C° 0 mm 1 mps 731 mmHg 66%
    20:00 +15°C° 0 mm 1 mps 731 mmHg 68%
    21:00 +15°C° 0 mm 1 mps 731 mmHg 70%
    22:00 +14°C° 0 mm 1 mps 731 mmHg 71%
    23:00 +13°C° 0 mm 0 mps 731 mmHg 73%

    28 September, Saturday

    Time Temperature Precipitation Wind Pressure Humidity
    00:00 +13°C° 0 mm 0 mps 731 mmHg 76%
    01:00 +12°C° 0 mm 0 mps 731 mmHg 78%
    02:00 +12°C° 0 mm 0 mps 731 mmHg 79%
    03:00 +12°C° 0 mm 0 mps 731 mmHg 81%
    04:00 +12°C° 0 mm 0 mps 731 mmHg 82%
    05:00 +12°C° 0 mm 0 mps 731 mmHg 80%
    06:00 +13°C° 0 mm 0 mps 731 mmHg 78%
    07:00 +13°C° 0 mm 0 mps 731 mmHg 76%
    08:00 +16°C° 0 mm 1 mps 731 mmHg 69%
    09:00 +18°C° 0 mm 2 mps 732 mmHg 62%
    10:00 +20°C° 0 mm 2 mps 732 mmHg 55%
    11:00 +21°C° 0 mm 3 mps 732 mmHg 52%
    12:00 +22°C° 0 mm 3 mps 731 mmHg 50%
    13:00 +22°C° 0 mm 3 mps 731 mmHg 48%
    14:00 +22°C° 0 mm 3 mps 731 mmHg 49%
    15:00 +23°C° 0 mm 2 mps 731 mmHg 51%
    16:00 +21°C° 0 mm 2 mps 730 mmHg 53%
    17:00 +21°C° 0 mm 1 mps 730 mmHg 58%
    18:00 +19°C° 0 mm 1 mps 730 mmHg 63%
    19:00 +18°C° 0 mm 1 mps 730 mmHg 67%
    20:00 +16°C° 0 mm 1 mps 730 mmHg 69%
    21:00 +15°C° 0 mm 1 mps 730 mmHg 71%
    22:00 +15°C° 0 mm 1 mps 730 mmHg 73%
    23:00 +14°C° 0 mm 1 mps 730 mmHg 74%
    Show more